星链-6271 (STARLINK-6271 )

导读

STARLINK-6271是由美国发射的星链卫星,于2023年5月4日升空,隶属于SpaceX公司的星链项目。该项目旨在构建全球卫星互联网星座,为全球偏远地区、海洋空域等提供高速网络服务。STARLINK-6271加入低轨星座网络,进一步推动了星链全球覆盖进程,拓展卫星互联网服务能力。

Basic Information
目录编号:
56397
目录名称:
STARLINK-6271
国际标识:
2023-061Z
轨道中心:
EARTH
卫星名称:
星链-6271
卫星全名:
星链-6271 (STARLINK-6271 )
卫星状态:
在轨 (已飞行1220 天)
发射日期:
2023-05-04 UTC
国别 :
美国 (US)
星等 :
--
Orbit Information
数据来源 国际轨道数据 AOE轨道数据
星历时间 2026-09-05T09:29:03+0800
7小时前
查看轨道信息
2026-08-31T02:00:00+0800
5天前
查看轨道信息
半长轴 6861.205km 6861.181km
偏心率 0.0000969 0.0001616
轨道倾角 43.002° 43.004°
近地点辐角 305.316° 309.149°
升交点赤经 254.350° 284.353°
平近点角 54.761° 325.369°
近地点 482.403km 481.935km
远地点 483.733km 484.153km
周期 94.267分钟 94.267分钟
每日圈数 15.275738 15.275819
Detailed Information
固有亮度:
5
最大亮度:
2.5
卫星平台:
Starlink v1.5
覆盖范围:
全球
运营商:
太空探索技术公司
运营商所在国:
美国
制造商(研发单位):
太空探索技术公司
制造商所在国:
美国
使用方式:
暂无
Satellite Introduction
星链(Starlink)计划是由太空探索技术公司(SpaceX)提出的一个巨型低轨卫星互联网星座项目,计划在2019年至2024年间在太空搭建由约1.2万颗卫星组成的“星链”网络,其中1584颗将部署在地球上空550千米处的近地轨道,并从2020年开始工作。该卫星仍在工作。
2D Orbit Map
3D Orbit Map
Orbit Altitude Analysis Chart
Orbit Inclination Analysis Chart
Orbit Comprehensive Analysis Chart
View Comprehensive Chart
Conjunction Data List
Event ID Objects TCA Miss Dist (km) Collision Risk Probability Collision Risk Index (CRI) Action
CDM_260906-070503-527005-639722
CZ-4 DEB (35270)
2026-09-06T
07:05:28+0000
1.894 km
极远距离
2.30987E-6 低风险 0.42
CDM_260906-144005-639706-187021
OBJECT B (61870)
2026-09-06T
14:40:54+0000
2.891 km
极远距离
1.138777E-6 低风险 0.36
CDM_260906-011605-370505-639721
2026-09-06T
01:16:56+0000
2.828 km
极远距离
1.050409E-6 低风险 0.35